Netzbetreibername:;Stadtwerke Gotha NETZ GmbH;;
Netz- oder Umspannebene:;alle;;
Lastgangtyp:;Summenlast der Fahrplanprognose f�r Lastprofilkunden;;
gesetzliche Grundlage:;� 23c Abs. 3 Nr. 4 EnWG;;
Einheit:;kW;;
Betrachtungszeitraum:;01.01.2024;bis;31.12.2024
;;;
;;;
;;;
;;;
Datum;Wert;;
01.01.2024 00:15;7.002;;
01.01.2024 00:30;6.553;;
01.01.2024 00:45;6.125;;
01.01.2024 01:00;5.714;;
01.01.2024 01:15;5.321;;
01.01.2024 01:30;4.964;;
01.01.2024 01:45;4.646;;
01.01.2024 02:00;4.386;;
01.01.2024 02:15;4.193;;
01.01.2024 02:30;4.051;;
01.01.2024 02:45;3.942;;
01.01.2024 03:00;3.865;;
01.01.2024 03:15;3.793;;
01.01.2024 03:30;3.728;;
01.01.2024 03:45;3.671;;
01.01.2024 04:00;3.623;;
01.01.2024 04:15;3.575;;
01.01.2024 04:30;3.541;;
01.01.2024 04:45;3.522;;
01.01.2024 05:00;3.514;;
01.01.2024 05:15;3.527;;
01.01.2024 05:30;3.551;;
01.01.2024 05:45;3.590;;
01.01.2024 06:00;3.642;;
01.01.2024 06:15;3.709;;
01.01.2024 06:30;3.781;;
01.01.2024 06:45;3.862;;
01.01.2024 07:00;3.950;;
01.01.2024 07:15;4.061;;
01.01.2024 07:30;4.230;;
01.01.2024 07:45;4.516;;
01.01.2024 08:00;4.974;;
01.01.2024 08:15;5.632;;
01.01.2024 08:30;6.450;;
01.01.2024 08:45;7.351;;
01.01.2024 09:00;8.176;;
01.01.2024 09:15;8.916;;
01.01.2024 09:30;9.719;;
01.01.2024 09:45;10.457;;
01.01.2024 10:00;11.124;;
01.01.2024 10:15;11.723;;
01.01.2024 10:30;12.274;;
01.01.2024 10:45;12.795;;
01.01.2024 11:00;13.320;;
01.01.2024 11:15;13.850;;
01.01.2024 11:30;14.350;;
01.01.2024 11:45;14.762;;
01.01.2024 12:00;15.040;;
01.01.2024 12:15;15.133;;
01.01.2024 12:30;15.040;;
01.01.2024 12:45;14.768;;
01.01.2024 13:00;14.317;;
01.01.2024 13:15;13.714;;
01.01.2024 13:30;13.004;;
01.01.2024 13:45;12.254;;
01.01.2024 14:00;11.537;;
01.01.2024 14:15;10.897;;
01.01.2024 14:30;10.342;;
01.01.2024 14:45;9.871;;
01.01.2024 15:00;9.478;;
01.01.2024 15:15;9.161;;
01.01.2024 15:30;8.886;;
01.01.2024 15:45;8.650;;
01.01.2024 16:00;8.416;;
01.01.2024 16:15;8.191;;
01.01.2024 16:30;8.027;;
01.01.2024 16:45;7.993;;
01.01.2024 17:00;8.177;;
01.01.2024 17:15;8.609;;
01.01.2024 17:30;9.225;;
01.01.2024 17:45;9.955;;
01.01.2024 18:00;10.782;;
01.01.2024 18:15;11.333;;
01.01.2024 18:30;11.788;;
01.01.2024 18:45;12.196;;
01.01.2024 19:00;12.584;;
01.01.2024 19:15;12.978;;
01.01.2024 19:30;13.311;;
01.01.2024 19:45;13.495;;
01.01.2024 20:00;13.424;;
01.01.2024 20:15;13.060;;
01.01.2024 20:30;12.487;;
01.01.2024 20:45;11.846;;
01.01.2024 21:00;11.255;;
01.01.2024 21:15;10.824;;
01.01.2024 21:30;10.508;;
01.01.2024 21:45;10.240;;
01.01.2024 22:00;9.949;;
01.01.2024 22:15;9.589;;
01.01.2024 22:30;9.153;;
01.01.2024 22:45;8.664;;
01.01.2024 23:00;8.136;;
01.01.2024 23:15;7.593;;
01.01.2024 23:30;7.051;;
01.01.2024 23:45;6.521;;
02.01.2024 00:00;6.014;;
02.01.2024 00:15;5.760;;
02.01.2024 00:30;5.274;;
02.01.2024 00:45;4.845;;
02.01.2024 01:00;4.483;;
02.01.2024 01:15;4.212;;
02.01.2024 01:30;4.022;;
02.01.2024 01:45;3.894;;
02.01.2024 02:00;3.808;;
02.01.2024 02:15;3.749;;
02.01.2024 02:30;3.704;;
02.01.2024 02:45;3.684;;
02.01.2024 03:00;3.665;;
02.01.2024 03:15;3.655;;
02.01.2024 03:30;3.662;;
02.01.2024 03:45;3.676;;
02.01.2024 04:00;3.721;;
02.01.2024 04:15;3.785;;
02.01.2024 04:30;3.874;;
02.01.2024 04:45;3.968;;
02.01.2024 05:00;4.062;;
02.01.2024 05:15;4.151;;
02.01.2024 05:30;4.312;;
02.01.2024 05:45;4.629;;
02.01.2024 06:00;5.185;;
02.01.2024 06:15;6.030;;
02.01.2024 06:30;7.061;;
02.01.2024 06:45;8.138;;
02.01.2024 07:00;9.122;;
02.01.2024 07:15;9.944;;
02.01.2024 07:30;10.602;;
02.01.2024 07:45;11.131;;
02.01.2024 08:00;11.572;;
02.01.2024 08:15;11.959;;
02.01.2024 08:30;12.276;;
02.01.2024 08:45;12.488;;
02.01.2024 09:00;12.496;;
02.01.2024 09:15;12.318;;
02.01.2024 09:30;12.173;;
02.01.2024 09:45;11.975;;
02.01.2024 10:00;11.802;;
02.01.2024 10:15;11.690;;
02.01.2024 10:30;11.631;;
02.01.2024 10:45;11.618;;
02.01.2024 11:00;11.645;;
02.01.2024 11:15;11.697;;
02.01.2024 11:30;11.769;;
02.01.2024 11:45;11.872;;
02.01.2024 12:00;12.010;;
02.01.2024 12:15;12.175;;
02.01.2024 12:30;12.321;;
02.01.2024 12:45;12.388;;
02.01.2024 13:00;12.334;;
02.01.2024 13:15;12.116;;
02.01.2024 13:30;11.785;;
02.01.2024 13:45;11.403;;
02.01.2024 14:00;11.047;;
02.01.2024 14:15;10.761;;
02.01.2024 14:30;10.554;;
02.01.2024 14:45;10.407;;
02.01.2024 15:00;10.296;;
02.01.2024 15:15;10.216;;
02.01.2024 15:30;10.164;;
02.01.2024 15:45;10.124;;
02.01.2024 16:00;10.112;;
02.01.2024 16:15;10.117;;
02.01.2024 16:30;10.173;;
02.01.2024 16:45;10.313;;
02.01.2024 17:00;10.589;;
02.01.2024 17:15;11.005;;
02.01.2024 17:30;11.525;;
02.01.2024 17:45;12.136;;
02.01.2024 18:00;12.863;;
02.01.2024 18:15;13.369;;
02.01.2024 18:30;13.797;;
02.01.2024 18:45;14.141;;
02.01.2024 19:00;14.401;;
02.01.2024 19:15;14.564;;
02.01.2024 19:30;14.607;;
02.01.2024 19:45;14.500;;
02.01.2024 20:00;14.217;;
02.01.2024 20:15;13.758;;
02.01.2024 20:30;13.172;;
02.01.2024 20:45;12.547;;
02.01.2024 21:00;11.958;;
02.01.2024 21:15;11.467;;
02.01.2024 21:30;11.053;;
02.01.2024 21:45;10.674;;
02.01.2024 22:00;10.288;;
02.01.2024 22:15;9.860;;
02.01.2024 22:30;9.394;;
02.01.2024 22:45;8.902;;
02.01.2024 23:00;8.386;;
02.01.2024 23:15;7.864;;
02.01.2024 23:30;7.334;;
02.01.2024 23:45;6.805;;
03.01.2024 00:00;6.276;;
03.01.2024 00:15;5.767;;
03.01.2024 00:30;5.280;;
03.01.2024 00:45;4.851;;
03.01.2024 01:00;4.487;;
03.01.2024 01:15;4.217;;
03.01.2024 01:30;4.026;;
03.01.2024 01:45;3.898;;
03.01.2024 02:00;3.812;;
03.01.2024 02:15;3.753;;
03.01.2024 02:30;3.708;;
03.01.2024 02:45;3.688;;
03.01.2024 03:00;3.669;;
03.01.2024 03:15;3.658;;
03.01.2024 03:30;3.665;;
03.01.2024 03:45;3.679;;
03.01.2024 04:00;3.724;;
03.01.2024 04:15;3.788;;
03.01.2024 04:30;3.878;;
03.01.2024 04:45;3.972;;
03.01.2024 05:00;4.066;;
03.01.2024 05:15;4.155;;
03.01.2024 05:30;4.316;;
03.01.2024 05:45;4.633;;
03.01.2024 06:00;5.190;;
03.01.2024 06:15;6.036;;
03.01.2024 06:30;7.068;;
03.01.2024 06:45;8.147;;
03.01.2024 07:00;9.132;;
03.01.2024 07:15;9.955;;
03.01.2024 07:30;10.614;;
03.01.2024 07:45;11.143;;
03.01.2024 08:00;11.585;;
03.01.2024 08:15;11.971;;
03.01.2024 08:30;12.288;;
03.01.2024 08:45;12.501;;
03.01.2024 09:00;12.508;;
03.01.2024 09:15;12.330;;
03.01.2024 09:30;12.184;;
03.01.2024 09:45;11.987;;
03.01.2024 10:00;11.813;;
03.01.2024 10:15;11.701;;
03.01.2024 10:30;11.641;;
03.01.2024 10:45;11.629;;
03.01.2024 11:00;11.656;;
03.01.2024 11:15;11.707;;
03.01.2024 11:30;11.780;;
03.01.2024 11:45;11.883;;
03.01.2024 12:00;12.022;;
03.01.2024 12:15;12.187;;
03.01.2024 12:30;12.333;;
03.01.2024 12:45;12.401;;
03.01.2024 13:00;12.346;;
03.01.2024 13:15;12.128;;
03.01.2024 13:30;11.797;;
03.01.2024 13:45;11.415;;
03.01.2024 14:00;11.058;;
03.01.2024 14:15;10.772;;
03.01.2024 14:30;10.564;;
03.01.2024 14:45;10.418;;
03.01.2024 15:00;10.307;;
03.01.2024 15:15;10.226;;
03.01.2024 15:30;10.174;;
03.01.2024 15:45;10.134;;
03.01.2024 16:00;10.121;;
03.01.2024 16:15;10.126;;
03.01.2024 16:30;10.183;;
03.01.2024 16:45;10.323;;
03.01.2024 17:00;10.599;;
03.01.2024 17:15;11.016;;
03.01.2024 17:30;11.536;;
03.01.2024 17:45;12.149;;
03.01.2024 18:00;12.876;;
03.01.2024 18:15;13.383;;
03.01.2024 18:30;13.812;;
03.01.2024 18:45;14.156;;
03.01.2024 19:00;14.417;;
03.01.2024 19:15;14.581;;
03.01.2024 19:30;14.624;;
03.01.2024 19:45;14.518;;
03.01.2024 20:00;14.234;;
03.01.2024 20:15;13.775;;
03.01.2024 20:30;13.188;;
03.01.2024 20:45;12.562;;
03.01.2024 21:00;11.972;;
03.01.2024 21:15;11.481;;
03.01.2024 21:30;11.066;;
03.01.2024 21:45;10.687;;
03.01.2024 22:00;10.300;;
03.01.2024 22:15;9.871;;
03.01.2024 22:30;9.405;;
03.01.2024 22:45;8.913;;
03.01.2024 23:00;8.396;;
03.01.2024 23:15;7.874;;
03.01.2024 23:30;7.342;;
03.01.2024 23:45;6.813;;
04.01.2024 00:00;6.283;;
04.01.2024 00:15;5.772;;
04.01.2024 00:30;5.285;;
04.01.2024 00:45;4.855;;
04.01.2024 01:00;4.492;;
04.01.2024 01:15;4.221;;
04.01.2024 01:30;4.030;;
04.01.2024 01:45;3.902;;
04.01.2024 02:00;3.816;;
04.01.2024 02:15;3.756;;
04.01.2024 02:30;3.711;;
04.01.2024 02:45;3.691;;
04.01.2024 03:00;3.672;;
04.01.2024 03:15;3.661;;
04.01.2024 03:30;3.669;;
04.01.2024 03:45;3.682;;
04.01.2024 04:00;3.727;;
04.01.2024 04:15;3.792;;
04.01.2024 04:30;3.881;;
04.01.2024 04:45;3.975;;
04.01.2024 05:00;4.069;;
04.01.2024 05:15;4.158;;
04.01.2024 05:30;4.320;;
04.01.2024 05:45;4.637;;
04.01.2024 06:00;5.195;;
04.01.2024 06:15;6.042;;
04.01.2024 06:30;7.075;;
04.01.2024 06:45;8.156;;
04.01.2024 07:00;9.141;;
04.01.2024 07:15;9.966;;
04.01.2024 07:30;10.625;;
04.01.2024 07:45;11.155;;
04.01.2024 08:00;11.596;;
04.01.2024 08:15;11.983;;
04.01.2024 08:30;12.300;;
04.01.2024 08:45;12.512;;
04.01.2024 09:00;12.519;;
04.01.2024 09:15;12.341;;
04.01.2024 09:30;12.195;;
04.01.2024 09:45;11.997;;
04.01.2024 10:00;11.824;;
04.01.2024 10:15;11.711;;
04.01.2024 10:30;11.651;;
04.01.2024 10:45;11.638;;
04.01.2024 11:00;11.666;;
04.01.2024 11:15;11.717;;
04.01.2024 11:30;11.790;;
04.01.2024 11:45;11.893;;
04.01.2024 12:00;12.032;;
04.01.2024 12:15;12.197;;
04.01.2024 12:30;12.344;;
04.01.2024 12:45;12.412;;
04.01.2024 13:00;12.358;;
04.01.2024 13:15;12.140;;
04.01.2024 13:30;11.808;;
04.01.2024 13:45;11.426;;
04.01.2024 14:00;11.069;;
04.01.2024 14:15;10.782;;
04.01.2024 14:30;10.574;;
04.01.2024 14:45;10.427;;
04.01.2024 15:00;10.316;;
04.01.2024 15:15;10.235;;
04.01.2024 15:30;10.183;;
04.01.2024 15:45;10.143;;
04.01.2024 16:00;10.130;;
04.01.2024 16:15;10.135;;
04.01.2024 16:30;10.192;;
04.01.2024 16:45;10.332;;
04.01.2024 17:00;10.608;;
04.01.2024 17:15;11.026;;
04.01.2024 17:30;11.547;;
04.01.2024 17:45;12.160;;
04.01.2024 18:00;12.888;;
04.01.2024 18:15;13.396;;
04.01.2024 18:30;13.825;;
04.01.2024 18:45;14.171;;
04.01.2024 19:00;14.433;;
04.01.2024 19:15;14.596;;
04.01.2024 19:30;14.640;;
04.01.2024 19:45;14.534;;
04.01.2024 20:00;14.250;;
04.01.2024 20:15;13.790;;
04.01.2024 20:30;13.202;;
04.01.2024 20:45;12.576;;
04.01.2024 21:00;11.985;;
04.01.2024 21:15;11.494;;
04.01.2024 21:30;11.079;;
04.01.2024 21:45;10.699;;
04.01.2024 22:00;10.311;;
04.01.2024 22:15;9.882;;
04.01.2024 22:30;9.415;;
04.01.2024 22:45;8.922;;
04.01.2024 23:00;8.405;;
04.01.2024 23:15;7.882;;
04.01.2024 23:30;7.350;;
04.01.2024 23:45;6.820;;
05.01.2024 00:00;6.289;;
05.01.2024 00:15;5.778;;
05.01.2024 00:30;5.289;;
05.01.2024 00:45;4.860;;
05.01.2024 01:00;4.495;;
05.01.2024 01:15;4.224;;
05.01.2024 01:30;4.033;;
05.01.2024 01:45;3.905;;
05.01.2024 02:00;3.819;;
05.01.2024 02:15;3.759;;
05.01.2024 02:30;3.714;;
05.01.2024 02:45;3.694;;
05.01.2024 03:00;3.675;;
05.01.2024 03:15;3.664;;
05.01.2024 03:30;3.672;;
05.01.2024 03:45;3.685;;
05.01.2024 04:00;3.730;;
05.01.2024 04:15;3.795;;
05.01.2024 04:30;3.884;;
05.01.2024 04:45;3.978;;
05.01.2024 05:00;4.072;;
05.01.2024 05:15;4.161;;
05.01.2024 05:30;4.323;;
05.01.2024 05:45;4.641;;
05.01.2024 06:00;5.199;;
05.01.2024 06:15;6.047;;
05.01.2024 06:30;7.082;;
05.01.2024 06:45;8.163;;
05.01.2024 07:00;9.150;;
05.01.2024 07:15;9.975;;
05.01.2024 07:30;10.635;;
05.01.2024 07:45;11.165;;
05.01.2024 08:00;11.607;;
05.01.2024 08:15;11.993;;
05.01.2024 08:30;12.310;;
05.01.2024 08:45;12.522;;
05.01.2024 09:00;12.530;;
05.01.2024 09:15;12.351;;
05.01.2024 09:30;12.204;;
05.01.2024 09:45;12.006;;
05.01.2024 10:00;11.833;;
05.01.2024 10:15;11.720;;
05.01.2024 10:30;11.660;;
05.01.2024 10:45;11.647;;
05.01.2024 11:00;11.675;;
05.01.2024 11:15;11.726;;
05.01.2024 11:30;11.799;;
05.01.2024 11:45;11.902;;
05.01.2024 12:00;12.041;;
05.01.2024 12:15;12.207;;
05.01.2024 12:30;12.354;;
05.01.2024 12:45;12.422;;
05.01.2024 13:00;12.368;;
05.01.2024 13:15;12.150;;
05.01.2024 13:30;11.818;;
05.01.2024 13:45;11.436;;
05.01.2024 14:00;11.078;;
05.01.2024 14:15;10.792;;
05.01.2024 14:30;10.584;;
05.01.2024 14:45;10.436;;
05.01.2024 15:00;10.325;;
05.01.2024 15:15;10.244;;
05.01.2024 15:30;10.191;;
05.01.2024 15:45;10.151;;
05.01.2024 16:00;10.138;;
05.01.2024 16:15;10.143;;
05.01.2024 16:30;10.200;;
05.01.2024 16:45;10.340;;
05.01.2024 17:00;10.617;;
05.01.2024 17:15;11.035;;
05.01.2024 17:30;11.557;;
05.01.2024 17:45;12.170;;
05.01.2024 18:00;12.899;;
05.01.2024 18:15;13.408;;
05.01.2024 18:30;13.838;;
05.01.2024 18:45;14.184;;
05.01.2024 19:00;14.447;;
05.01.2024 19:15;14.611;;
05.01.2024 19:30;14.655;;
05.01.2024 19:45;14.548;;
05.01.2024 20:00;14.265;;
05.01.2024 20:15;13.804;;
05.01.2024 20:30;13.216;;
05.01.2024 20:45;12.588;;
05.01.2024 21:00;11.998;;
05.01.2024 21:15;11.505;;
05.01.2024 21:30;11.090;;
05.01.2024 21:45;10.710;;
05.01.2024 22:00;10.322;;
05.01.2024 22:15;9.892;;
05.01.2024 22:30;9.425;;
05.01.2024 22:45;8.931;;
05.01.2024 23:00;8.413;;
05.01.2024 23:15;7.890;;
05.01.2024 23:30;7.357;;
05.01.2024 23:45;6.826;;
06.01.2024 00:00;6.295;;
06.01.2024 00:15;6.061;;
06.01.2024 00:30;5.940;;
06.01.2024 00:45;5.840;;
06.01.2024 01:00;5.709;;
06.01.2024 01:15;5.472;;
06.01.2024 01:30;5.167;;
06.01.2024 01:45;4.849;;
06.01.2024 02:00;4.562;;
06.01.2024 02:15;4.355;;
06.01.2024 02:30;4.223;;
06.01.2024 02:45;4.144;;
06.01.2024 03:00;4.091;;
06.01.2024 03:15;4.057;;
06.01.2024 03:30;4.037;;
06.01.2024 03:45;4.022;;
06.01.2024 04:00;4.009;;
06.01.2024 04:15;4.002;;
06.01.2024 04:30;3.996;;
06.01.2024 04:45;3.997;;
06.01.2024 05:00;4.016;;
06.01.2024 05:15;4.053;;
06.01.2024 05:30;4.118;;
06.01.2024 05:45;4.224;;
06.01.2024 06:00;4.387;;
06.01.2024 06:15;4.622;;
06.01.2024 06:30;4.942;;
06.01.2024 06:45;5.361;;
06.01.2024 07:00;5.883;;
06.01.2024 07:15;6.524;;
06.01.2024 07:30;7.262;;
06.01.2024 07:45;8.069;;
06.01.2024 08:00;8.914;;
06.01.2024 08:15;9.773;;
06.01.2024 08:30;10.598;;
06.01.2024 08:45;11.336;;
06.01.2024 09:00;11.850;;
06.01.2024 09:15;12.153;;
06.01.2024 09:30;12.435;;
06.01.2024 09:45;12.620;;
06.01.2024 10:00;12.752;;
06.01.2024 10:15;12.868;;
06.01.2024 10:30;12.984;;
06.01.2024 10:45;13.094;;
06.01.2024 11:00;13.206;;
06.01.2024 11:15;13.325;;
06.01.2024 11:30;13.451;;
06.01.2024 11:45;13.600;;
06.01.2024 12:00;13.773;;
06.01.2024 12:15;13.965;;
06.01.2024 12:30;14.148;;
06.01.2024 12:45;14.264;;
06.01.2024 13:00;14.283;;
06.01.2024 13:15;14.161;;
06.01.2024 13:30;13.924;;
06.01.2024 13:45;13.596;;
06.01.2024 14:00;13.211;;
06.01.2024 14:15;12.797;;
06.01.2024 14:30;12.387;;
06.01.2024 14:45;11.991;;
06.01.2024 15:00;11.641;;
06.01.2024 15:15;11.349;;
06.01.2024 15:30;11.115;;
06.01.2024 15:45;10.934;;
06.01.2024 16:00;10.802;;
06.01.2024 16:15;10.719;;
06.01.2024 16:30;10.741;;
06.01.2024 16:45;10.942;;
06.01.2024 17:00;11.391;;
06.01.2024 17:15;12.116;;
06.01.2024 17:30;13.008;;
06.01.2024 17:45;13.949;;
06.01.2024 18:00;14.858;;
06.01.2024 18:15;15.339;;
06.01.2024 18:30;15.592;;
06.01.2024 18:45;15.711;;
06.01.2024 19:00;15.774;;
06.01.2024 19:15;15.842;;
06.01.2024 19:30;15.839;;
06.01.2024 19:45;15.676;;
06.01.2024 20:00;15.248;;
06.01.2024 20:15;14.506;;
06.01.2024 20:30;13.562;;
06.01.2024 20:45;12.564;;
06.01.2024 21:00;11.674;;
06.01.2024 21:15;11.005;;
06.01.2024 21:30;10.535;;
06.01.2024 21:45;10.217;;
06.01.2024 22:00;9.997;;
06.01.2024 22:15;9.822;;
06.01.2024 22:30;9.653;;
06.01.2024 22:45;9.454;;
06.01.2024 23:00;9.197;;
06.01.2024 23:15;8.852;;
06.01.2024 23:30;8.432;;
06.01.2024 23:45;7.972;;
07.01.2024 00:00;7.503;;
07.01.2024 00:15;7.045;;
07.01.2024 00:30;6.593;;
07.01.2024 00:45;6.162;;
07.01.2024 01:00;5.748;;
07.01.2024 01:15;5.353;;
07.01.2024 01:30;4.992;;
07.01.2024 01:45;4.672;;
07.01.2024 02:00;4.410;;
07.01.2024 02:15;4.216;;
07.01.2024 02:30;4.073;;
07.01.2024 02:45;3.964;;
07.01.2024 03:00;3.886;;
07.01.2024 03:15;3.814;;
07.01.2024 03:30;3.748;;
07.01.2024 03:45;3.691;;
07.01.2024 04:00;3.642;;
07.01.2024 04:15;3.594;;
07.01.2024 04:30;3.560;;
07.01.2024 04:45;3.541;;
07.01.2024 05:00;3.533;;
07.01.2024 05:15;3.546;;
07.01.2024 05:30;3.569;;
07.01.2024 05:45;3.609;;
07.01.2024 06:00;3.661;;
07.01.2024 06:15;3.728;;
07.01.2024 06:30;3.801;;
07.01.2024 06:45;3.883;;
07.01.2024 07:00;3.971;;
07.01.2024 07:15;4.083;;
07.01.2024 07:30;4.252;;
07.01.2024 07:45;4.541;;
07.01.2024 08:00;5.003;;
07.01.2024 08:15;5.665;;
07.01.2024 08:30;6.490;;
07.01.2024 08:45;7.398;;
07.01.2024 09:00;8.230;;
07.01.2024 09:15;8.976;;
07.01.2024 09:30;9.784;;
07.01.2024 09:45;10.527;;
07.01.2024 10:00;11.199;;
07.01.2024 10:15;11.803;;
07.01.2024 10:30;12.358;;
07.01.2024 10:45;12.882;;
07.01.2024 11:00;13.412;;
07.01.2024 11:15;13.945;;
07.01.2024 11:30;14.449;;
07.01.2024 11:45;14.864;;
07.01.2024 12:00;15.143;;
07.01.2024 12:15;15.237;;
07.01.2024 12:30;15.143;;
07.01.2024 12:45;14.869;;
07.01.2024 13:00;14.415;;
07.01.2024 13:15;13.807;;
07.01.2024 13:30;13.092;;
07.01.2024 13:45;12.337;;
07.01.2024 14:00;11.614;;
07.01.2024 14:15;10.969;;
07.01.2024 14:30;10.411;;
07.01.2024 14:45;9.936;;
07.01.2024 15:00;9.540;;
07.01.2024 15:15;9.221;;
07.01.2024 15:30;8.943;;
07.01.2024 15:45;8.707;;
07.01.2024 16:00;8.471;;
07.01.2024 16:15;8.244;;
07.01.2024 16:30;8.079;;
07.01.2024 16:45;8.044;;
07.01.2024 17:00;8.230;;
07.01.2024 17:15;8.665;;
07.01.2024 17:30;9.284;;
07.01.2024 17:45;10.018;;
07.01.2024 18:00;10.850;;
07.01.2024 18:15;11.405;;
07.01.2024 18:30;11.864;;
07.01.2024 18:45;12.274;;
07.01.2024 19:00;12.665;;
07.01.2024 19:15;13.062;;
07.01.2024 19:30;13.398;;
07.01.2024 19:45;13.583;;
07.01.2024 20:00;13.512;;
07.01.2024 20:15;13.145;;
07.01.2024 20:30;12.568;;
07.01.2024 20:45;11.922;;
07.01.2024 21:00;11.328;;
07.01.2024 21:15;10.894;;
07.01.2024 21:30;10.575;;
07.01.2024 21:45;10.306;;
07.01.2024 22:00;10.013;;
07.01.2024 22:15;9.651;;
07.01.2024 22:30;9.211;;
07.01.2024 22:45;8.719;;
07.01.2024 23:00;8.187;;
07.01.2024 23:15;7.640;;
07.01.2024 23:30;7.095;;
07.01.2024 23:45;6.561;;
08.01.2024 00:00;6.050;;
08.01.2024 00:15;5.791;;
08.01.2024 00:30;5.301;;
08.01.2024 00:45;4.870;;
08.01.2024 01:00;4.505;;
08.01.2024 01:15;4.233;;
08.01.2024 01:30;4.041;;
08.01.2024 01:45;3.913;;
08.01.2024 02:00;3.827;;
08.01.2024 02:15;3.767;;
08.01.2024 02:30;3.722;;
08.01.2024 02:45;3.702;;
08.01.2024 03:00;3.683;;
08.01.2024 03:15;3.672;;
08.01.2024 03:30;3.679;;
08.01.2024 03:45;3.693;;
08.01.2024 04:00;3.738;;
08.01.2024 04:15;3.802;;
08.01.2024 04:30;3.892;;
08.01.2024 04:45;3.986;;
08.01.2024 05:00;4.080;;
08.01.2024 05:15;4.169;;
08.01.2024 05:30;4.332;;
08.01.2024 05:45;4.650;;
08.01.2024 06:00;5.210;;
08.01.2024 06:15;6.060;;
08.01.2024 06:30;7.098;;
08.01.2024 06:45;8.182;;
08.01.2024 07:00;9.172;;
08.01.2024 07:15;9.999;;
08.01.2024 07:30;10.660;;
08.01.2024 07:45;11.191;;
08.01.2024 08:00;11.633;;
08.01.2024 08:15;12.020;;
08.01.2024 08:30;12.336;;
08.01.2024 08:45;12.548;;
08.01.2024 09:00;12.555;;
08.01.2024 09:15;12.375;;
08.01.2024 09:30;12.229;;
08.01.2024 09:45;12.030;;
08.01.2024 10:00;11.856;;
08.01.2024 10:15;11.742;;
08.01.2024 10:30;11.683;;
08.01.2024 10:45;11.670;;
08.01.2024 11:00;11.697;;
08.01.2024 11:15;11.749;;
08.01.2024 11:30;11.822;;
08.01.2024 11:45;11.925;;
08.01.2024 12:00;12.065;;
08.01.2024 12:15;12.232;;
08.01.2024 12:30;12.380;;
08.01.2024 12:45;12.448;;
08.01.2024 13:00;12.394;;
08.01.2024 13:15;12.176;;
08.01.2024 13:30;11.844;;
08.01.2024 13:45;11.460;;
08.01.2024 14:00;11.102;;
08.01.2024 14:15;10.815;;
08.01.2024 14:30;10.606;;
08.01.2024 14:45;10.458;;
08.01.2024 15:00;10.346;;
08.01.2024 15:15;10.265;;
08.01.2024 15:30;10.212;;
08.01.2024 15:45;10.171;;
08.01.2024 16:00;10.158;;
08.01.2024 16:15;10.163;;
08.01.2024 16:30;10.220;;
08.01.2024 16:45;10.360;;
08.01.2024 17:00;10.638;;
08.01.2024 17:15;11.057;;
08.01.2024 17:30;11.581;;
08.01.2024 17:45;12.196;;
08.01.2024 18:00;12.927;;
08.01.2024 18:15;13.437;;
08.01.2024 18:30;13.870;;
08.01.2024 18:45;14.218;;
08.01.2024 19:00;14.481;;
08.01.2024 19:15;14.647;;
08.01.2024 19:30;14.691;;
08.01.2024 19:45;14.585;;
08.01.2024 20:00;14.301;;
08.01.2024 20:15;13.839;;
08.01.2024 20:30;13.249;;
08.01.2024 20:45;12.620;;
08.01.2024 21:00;12.028;;
08.01.2024 21:15;11.534;;
08.01.2024 21:30;11.118;;
08.01.2024 21:45;10.737;;
08.01.2024 22:00;10.348;;
08.01.2024 22:15;9.917;;
08.01.2024 22:30;9.448;;
08.01.2024 22:45;8.953;;
08.01.2024 23:00;8.433;;
08.01.2024 23:15;7.909;;
08.01.2024 23:30;7.374;;
08.01.2024 23:45;6.842;;
09.01.2024 00:00;6.310;;
09.01.2024 00:15;5.794;;
09.01.2024 00:30;5.304;;
09.01.2024 00:45;4.873;;
09.01.2024 01:00;4.508;;
09.01.2024 01:15;4.235;;
09.01.2024 01:30;4.044;;
09.01.2024 01:45;3.915;;
09.01.2024 02:00;3.829;;
09.01.2024 02:15;3.769;;
09.01.2024 02:30;3.724;;
09.01.2024 02:45;3.704;;
09.01.2024 03:00;3.685;;
09.01.2024 03:15;3.674;;
09.01.2024 03:30;3.681;;
09.01.2024 03:45;3.695;;
09.01.2024 04:00;3.740;;
09.01.2024 04:15;3.804;;
09.01.2024 04:30;3.894;;
09.01.2024 04:45;3.988;;
09.01.2024 05:00;4.082;;
09.01.2024 05:15;4.171;;
09.01.2024 05:30;4.334;;
09.01.2024 05:45;4.653;;
09.01.2024 06:00;5.213;;
09.01.2024 06:15;6.064;;
09.01.2024 06:30;7.102;;
09.01.2024 06:45;8.187;;
09.01.2024 07:00;9.177;;
09.01.2024 07:15;10.005;;
09.01.2024 07:30;10.666;;
09.01.2024 07:45;11.197;;
09.01.2024 08:00;11.640;;
09.01.2024 08:15;12.027;;
09.01.2024 08:30;12.343;;
09.01.2024 08:45;12.555;;
09.01.2024 09:00;12.562;;
09.01.2024 09:15;12.382;;
09.01.2024 09:30;12.235;;
09.01.2024 09:45;12.036;;
09.01.2024 10:00;11.862;;
09.01.2024 10:15;11.748;;
09.01.2024 10:30;11.689;;
09.01.2024 10:45;11.676;;
09.01.2024 11:00;11.703;;
09.01.2024 11:15;11.755;;
09.01.2024 11:30;11.828;;
09.01.2024 11:45;11.931;;
09.01.2024 12:00;12.071;;
09.01.2024 12:15;12.238;;
09.01.2024 12:30;12.386;;
09.01.2024 12:45;12.455;;
09.01.2024 13:00;12.401;;
09.01.2024 13:15;12.183;;
09.01.2024 13:30;11.850;;
09.01.2024 13:45;11.467;;
09.01.2024 14:00;11.109;;
09.01.2024 14:15;10.821;;
09.01.2024 14:30;10.612;;
09.01.2024 14:45;10.464;;
09.01.2024 15:00;10.352;;
09.01.2024 15:15;10.270;;
09.01.2024 15:30;10.217;;
09.01.2024 15:45;10.176;;
09.01.2024 16:00;10.163;;
09.01.2024 16:15;10.168;;
09.01.2024 16:30;10.225;;
09.01.2024 16:45;10.366;;
09.01.2024 17:00;10.644;;
09.01.2024 17:15;11.063;;
09.01.2024 17:30;11.587;;
09.01.2024 17:45;12.203;;
09.01.2024 18:00;12.934;;
09.01.2024 18:15;13.445;;
09.01.2024 18:30;13.878;;
09.01.2024 18:45;14.226;;
09.01.2024 19:00;14.491;;
09.01.2024 19:15;14.656;;
09.01.2024 19:30;14.701;;
09.01.2024 19:45;14.595;;
09.01.2024 20:00;14.310;;
09.01.2024 20:15;13.849;;
09.01.2024 20:30;13.258;;
09.01.2024 20:45;12.629;;
09.01.2024 21:00;12.036;;
09.01.2024 21:15;11.542;;
09.01.2024 21:30;11.125;;
09.01.2024 21:45;10.744;;
09.01.2024 22:00;10.354;;
09.01.2024 22:15;9.923;;
09.01.2024 22:30;9.454;;
09.01.2024 22:45;8.959;;
09.01.2024 23:00;8.439;;
09.01.2024 23:15;7.914;;
09.01.2024 23:30;7.379;;
09.01.2024 23:45;6.846;;
10.01.2024 00:00;6.314;;
10.01.2024 00:15;5.797;;
10.01.2024 00:30;5.307;;
10.01.2024 00:45;4.875;;
10.01.2024 01:00;4.510;;
10.01.2024 01:15;4.238;;
10.01.2024 01:30;4.046;;
10.01.2024 01:45;3.917;;
10.01.2024 02:00;3.831;;
10.01.2024 02:15;3.771;;
10.01.2024 02:30;3.726;;
10.01.2024 02:45;3.706;;
10.01.2024 03:00;3.686;;
10.01.2024 03:15;3.676;;
10.01.2024 03:30;3.683;;
10.01.2024 03:45;3.697;;
10.01.2024 04:00;3.742;;
10.01.2024 04:15;3.806;;
10.01.2024 04:30;3.895;;
10.01.2024 04:45;3.989;;
10.01.2024 05:00;4.084;;
10.01.2024 05:15;4.173;;
10.01.2024 05:30;4.336;;
10.01.2024 05:45;4.655;;
10.01.2024 06:00;5.215;;
10.01.2024 06:15;6.067;;
10.01.2024 06:30;7.106;;
10.01.2024 06:45;8.192;;
10.01.2024 07:00;9.182;;